[[{"header":{"parameterUnit":"m.s-1","parameterCategory":1,"la1":30.2992,"la2":30.254,"lo1":-89.0895,"lo2":-89.0443,"dy":0.0025,"dx":0.0025,"nx":19,"ny":19,"refTime":"2026-04-23T21:00:00:Z","depth":0,"parameterNumber":2,"parameterNumberName":"U-component_of_WINDS"},"data":[0,0,0,0.6774,0.6775,0.6839,0.684,0.6916,0.6917,0,0,0,0,0,0,0,0,0,0,0,0.6753,0.6753,0.6773,0.6775,0.6839,0.684,0.6916,0.6917,0,0,0,0,0,0,0,0,0,0,0,0.6753,0.6753,0.6754,0.6775,0.6839,0.684,0.6916,0.6869,0,0,0,0,0,0,0,0,0,0,0.6807,0.6787,0.6753,0.6754,0.6776,0.6839,0.684,0.6867,0.6872,0.6885,0,0.6898,0,0.6909,0.6922,0.6922,0,0,0,0.6776,0.6783,0.6802,0.6754,0.6776,0.6839,0.6811,0.687,0.6876,0.6892,0.6899,0.6902,0.691,0.6922,0.6923,0.6999,0.6999,0,0,0.6772,0.6763,0.6798,0.6805,0.6797,0.6808,0.6813,0.6873,0.688,0.69,0.6904,0.6911,0.6923,0.6924,0.6999,0.6999,0,0,0,0.6761,0.6761,0.6778,0.6802,0.6814,0.681,0.6815,0.6877,0.6884,0.6905,0.6912,0.6923,0.6924,0.6998,0.6999,0.7005,0,0,0,0.6759,0.6754,0.6777,0.6772,0.6813,0.6847,0.6818,0.688,0.6887,0.6912,0.6923,0.6925,0.6998,0.6999,0.7005,0.701,0,0,0,0.6749,0.6753,0.6762,0.6771,0.6799,0.6846,0.6856,0.6882,0.6891,0.6922,0.6925,0.6998,0.6999,0.7004,0.7009,0.7026,0,0,0,0.6735,0.6768,0.6762,0.6801,0.6798,0.6851,0.6856,0.6896,0.6923,0.6924,0.6998,0.6999,0.7004,0.7008,0.7026,0.704,0.7045,0,0,0.6771,0.6771,0.6795,0.6792,0.6843,0.6841,0.6893,0.6926,0.6937,0.6977,0.6979,0.7005,0.7009,0.7026,0.7078,0.7082,0,0,0,0.6803,0.6819,0.6835,0.6861,0.6888,0.691,0.6936,0.6948,0.6983,0.6956,0.7017,0.7019,0.703,0.7037,0.704,0.7049,0.7002,0.7002,0.7002,0.684,0.6852,0.6891,0.6911,0.6935,0.6962,0.6982,0.7002,0.7008,0.7021,0.7033,0.7064,0.7071,0.7074,0.7083,0.7042,0.7042,0.7042,0.7042,0.6893,0.6917,0.6923,0.6962,0.6974,0.7006,0.7032,0.7034,0.7065,0.7056,0.7066,0.7054,0.7078,0.7087,0.7043,0.7043,0.7043,0.7043,0.7043,0.6918,0.6932,0.6946,0.6984,0.7011,0.7029,0.7058,0.7068,0.7077,0.7087,0.7099,0.7099,0.7099,0.7092,0.7092,0.7092,0.7092,0.7092,0.7093,0.6938,0.6954,0.6978,0.7008,0.7025,0.7048,0.7073,0.709,0.711,0.7115,0.7115,0.7117,0.7079,0.7068,0.7094,0.7094,0.7094,0.7094,0.7093,0.6985,0.6976,0.7013,0.703,0.7065,0.709,0.7102,0.7134,0.7149,0.7162,0.7162,0.7133,0.7134,0.7131,0.7123,0.7161,0.7161,0.7161,0.7161,0.7006,0.7007,0.7047,0.7073,0.71,0.7114,0.7153,0.7172,0.719,0.7199,0.7195,0.7185,0.7182,0.7184,0.7181,0.7173,0.7223,0.7223,0.7223,0.7035,0.7039,0.7072,0.7091,0.7118,0.714,0.7177,0.7205,0.7223,0.7226,0.7206,0.7204,0.7187,0.7181,0.7183,0.7177,0.7163,0,0]},{"header":{"parameterUnit":"m.s-1","parameterCategory":1,"la1":30.2992,"la2":30.254,"lo1":-89.0895,"lo2":-89.0443,"dy":0.0025,"dx":0.0025,"nx":19,"ny":19,"refTime":"2026-04-23T21:00:00:Z","depth":0,"parameterNumber":3,"parameterNumberName":"V-component_of_WINDS"},"data":[0,0,0,2.373,2.3731,2.3794,2.3794,2.3875,2.3876,0,0,0,0,0,0,0,0,0,0,0,2.3714,2.3714,2.373,2.3732,2.3794,2.3794,2.3875,2.3876,0,0,0,0,0,0,0,0,0,0,0,2.3714,2.3714,2.3715,2.3732,2.3794,2.3794,2.3875,2.3827,0,0,0,0,0,0,0,0,0,0,2.3766,2.3754,2.3714,2.3715,2.3732,2.3794,2.3794,2.3825,2.383,2.3848,0,2.3866,0,2.3872,2.3882,2.3882,0,0,0,2.3729,2.3749,2.3764,2.3715,2.3733,2.3794,2.3765,2.3828,2.3834,2.3855,2.3867,2.387,2.3874,2.3882,2.3883,2.3998,2.3999,0,0,2.3726,2.3726,2.376,2.3768,2.3761,2.3763,2.3767,2.3831,2.3844,2.3867,2.3872,2.3875,2.3883,2.3883,2.3997,2.3998,0,0,0,2.3717,2.3724,2.3737,2.3765,2.3776,2.3765,2.377,2.3841,2.3845,2.3873,2.3876,2.3883,2.3884,2.3997,2.3998,2.4031,0,0,0,2.3715,2.3719,2.3736,2.3736,2.3775,2.381,2.3778,2.3841,2.3848,2.3876,2.3883,2.3885,2.3996,2.3997,2.4028,2.4046,0,0,0,2.3709,2.3718,2.3728,2.3736,2.3763,2.3809,2.3817,2.3842,2.385,2.3882,2.3885,2.3996,2.3997,2.4026,2.4043,2.4077,0,0,0,2.3702,2.3755,2.3729,2.379,2.3763,2.3829,2.3816,2.3865,2.3897,2.3884,2.3996,2.3998,2.4026,2.404,2.4075,2.4107,2.412,0,0,2.3769,2.3763,2.3799,2.3777,2.3849,2.382,2.3896,2.3923,2.3925,2.3973,2.3976,2.4029,2.4042,2.4077,2.4193,2.4204,0,0,0,2.3821,2.3847,2.3866,2.3896,2.392,2.3941,2.3957,2.3967,2.4009,2.395,2.4051,2.4059,2.4079,2.4094,2.4103,2.412,2.4005,2.4004,2.4004,2.3916,2.3918,2.3977,2.3986,2.4016,2.4032,2.4056,2.4072,2.4063,2.4087,2.4101,2.4172,2.419,2.4197,2.4215,2.4118,2.4118,2.4118,2.4118,2.4016,2.4053,2.4041,2.4095,2.4095,2.4139,2.4157,2.4149,2.419,2.4161,2.4179,2.4148,2.4208,2.4224,2.412,2.412,2.412,2.4119,2.4119,2.4079,2.4097,2.4109,2.4154,2.4188,2.4194,2.4234,2.4233,2.4231,2.4248,2.4263,2.4263,2.4262,2.4256,2.4256,2.4256,2.4256,2.4257,2.4257,2.4139,2.4153,2.4188,2.4218,2.4237,2.4263,2.428,2.4299,2.4318,2.4314,2.4314,2.4303,2.4214,2.4192,2.4261,2.426,2.4259,2.4259,2.4259,2.424,2.4218,2.4272,2.4292,2.4327,2.436,2.4358,2.4396,2.4411,2.4431,2.4416,2.4351,2.4344,2.4337,2.4319,2.4416,2.4416,2.4416,2.4416,2.4294,2.4291,2.4346,2.4378,2.4409,2.4412,2.4472,2.4486,2.4496,2.4505,2.449,2.4466,2.4459,2.4456,2.4446,2.4429,2.4552,2.4553,2.4553,2.4356,2.4356,2.4408,2.442,2.4447,2.447,2.4526,2.4562,2.4568,2.4558,2.4512,2.4506,2.4467,2.4454,2.4443,2.4428,2.4396,0,0]}]]